Location: Ferchesar
(52.6477°N, 12.4298°E)
Time: 09:40:53
(UTC+01:00)

A-11 Canister half - Pass Details

Date: 07 December 2021
Orbit: 1516 x 1684 km, 47.2° (Epoch: 22 January)

Event Time Altitude Azimuth Distance (km) Brightness Sun altitude
Rises 07:06:46 0° 233° (SW) 4,751 11.3 -8.6°
Reaches altitude 10° 07:09:54 10° 228° (SW) 3,791 10.9 -8.2°
Maximum altitude 07:19:07 52° 157° (SSE) 1,966 10.0 -6.9°
Drops below altitude 10° 07:28:39 10° 85° (E) 3,919 12.1 -5.7°
Sets 07:31:56 0° 81° (E) 4,922 12.5 -5.2°
